Location: Hac?musa Deresi
(39.1694°N, 32.2508°E)
Time: 10:31:19
(UTC+00:00)

Terra - Pass Details

Date: 22 April 2026
Orbit: 689 x 691 km, 97.9° (Epoch: 20 May)

Event Time Altitude Azimuth Distance (km) Brightness Sun altitude
Exits shadow 19:32:12 12° 241° (WSW) 2,004 4.2 -29.3°
Maximum altitude 19:34:12 15° 268° (W) 1,821 4.3 -29.6°
Drops below altitude 10° 19:36:52 10° 304° (WNW) 2,143 5.1 -29.9°
Sets 19:40:05 0° 327° (NNW) 3,065 6.3 -30.3°
